Wetterdaten: Samstag, 09.02.2013
Datum Zeit Temp. Auen Feucht Auen Luftdruck Regen Richtung Richtung Windben
09.02.2013 00:00 -6,2 C 93 % 1015,2 hPa 0,0 mm NW 321 0,0 km/h (0 Bft)
09.02.2013 00:05 -6,2 C 93 % 1015,2 hPa 0,0 mm W-NW 286 0,0 km/h (0 Bft)
09.02.2013 00:10 -6,1 C 93 % 1015,2 hPa 0,0 mm W-NW 286 3,2 km/h (1 Bft)
09.02.2013 00:15 -6,1 C 93 % 1015,3 hPa 0,0 mm W-NW 286 0,0 km/h (0 Bft)
09.02.2013 00:20 -6,2 C 93 % 1015,3 hPa 0,0 mm W-NW 286 0,0 km/h (0 Bft)
09.02.2013 00:25 -6,2 C 93 % 1015,2 hPa 0,0 mm W-NW 286 0,0 km/h (0 Bft)
09.02.2013 00:30 -6,2 C 93 % 1015,3 hPa 0,0 mm W-NW 286 0,0 km/h (0 Bft)
09.02.2013 00:35 -6,1 C 93 % 1015,3 hPa 0,0 mm W-NW 286 0,0 km/h (0 Bft)
09.02.2013 00:40 -6,1 C 94 % 1015,2 hPa 0,0 mm W-NW 286 0,0 km/h (0 Bft)
09.02.2013 00:45 -6,1 C 94 % 1015,2 hPa 0,0 mm W-NW 286 0,0 km/h (0 Bft)
09.02.2013 00:50 -6,1 C 94 % 1015,2 hPa 0,0 mm W-NW 286 0,0 km/h (0 Bft)
09.02.2013 00:55 -6,1 C 94 % 1015,2 hPa 0,0 mm W-NW 286 0,0 km/h (0 Bft)
09.02.2013 01:00 -6,0 C 94 % 1015,2 hPa 0,0 mm W-NW 286 0,0 km/h (0 Bft)
09.02.2013 01:05 -5,9 C 94 % 1015,2 hPa 0,0 mm W-NW 286 1,6 km/h (1 Bft)
09.02.2013 01:10 -5,8 C 94 % 1015,2 hPa 0,0 mm W-NW 286 1,6 km/h (1 Bft)
09.02.2013 01:15 -5,7 C 94 % 1015,2 hPa 0,0 mm W-NW 286 1,6 km/h (1 Bft)
09.02.2013 01:20 -5,6 C 94 % 1015,2 hPa 0,0 mm W-NW 286 0,0 km/h (0 Bft)
09.02.2013 01:25 -5,5 C 94 % 1015,1 hPa 0,0 mm W-NW 286 0,0 km/h (0 Bft)
09.02.2013 01:30 -5,4 C 94 % 1015,2 hPa 0,0 mm W-NW 286 0,0 km/h (0 Bft)
09.02.2013 01:35 -5,4 C 94 % 1015,3 hPa 0,0 mm W-NW 286 0,0 km/h (0 Bft)
09.02.2013 01:40 -5,3 C 95 % 1015,2 hPa 0,0 mm W-NW 286 0,0 km/h (0 Bft)
09.02.2013 01:45 -5,2 C 95 % 1015,3 hPa 0,0 mm W-NW 286 0,0 km/h (0 Bft)
09.02.2013 01:50 -5,2 C 95 % 1015,3 hPa 0,0 mm W-NW 286 0,0 km/h (0 Bft)
09.02.2013 01:55 -5,2 C 95 % 1015,4 hPa 0,0 mm W-NW 286 1,6 km/h (1 Bft)
09.02.2013 02:00 -5,2 C 95 % 1015,4 hPa 0,0 mm W 270 3,2 km/h (1 Bft)
09.02.2013 02:05 -5,1 C 95 % 1015,4 hPa 0,0 mm W 270 3,2 km/h (1 Bft)
09.02.2013 02:10 -5,0 C 95 % 1015,4 hPa 0,0 mm W 271 3,2 km/h (1 Bft)
09.02.2013 02:15 -4,8 C 95 % 1015,3 hPa 0,0 mm W 271 0,0 km/h (0 Bft)
09.02.2013 02:20 -4,7 C 95 % 1015,3 hPa 0,0 mm W 271 0,0 km/h (0 Bft)
09.02.2013 02:25 -4,6 C 95 % 1015,3 hPa 0,0 mm W 271 0,0 km/h (0 Bft)
09.02.2013 02:30 -4,5 C 95 % 1015,3 hPa 0,0 mm W 271 0,0 km/h (0 Bft)
09.02.2013 02:35 -4,4 C 95 % 1015,3 hPa 0,0 mm W 271 0,0 km/h (0 Bft)
09.02.2013 02:40 -4,4 C 95 % 1015,3 hPa 0,0 mm W 271 0,0 km/h (0 Bft)
09.02.2013 02:45 -4,4 C 95 % 1015,2 hPa 0,0 mm W 271 0,0 km/h (0 Bft)
09.02.2013 02:50 -4,3 C 95 % 1015,2 hPa 0,2 mm W 271 0,0 km/h (0 Bft)
09.02.2013 02:55 -4,2 C 95 % 1015,3 hPa 0,0 mm W 271 0,0 km/h (0 Bft)
09.02.2013 03:00 -4,2 C 95 % 1015,3 hPa 0,0 mm W-NW 297 0,0 km/h (0 Bft)
09.02.2013 03:05 -4,1 C 95 % 1015,3 hPa 0,0 mm W-NW 297 0,0 km/h (0 Bft)
09.02.2013 03:10 -4,1 C 95 % 1015,3 hPa 0,0 mm W-NW 297 0,0 km/h (0 Bft)
09.02.2013 03:15 -4,1 C 95 % 1015,3 hPa 0,0 mm W-NW 297 0,0 km/h (0 Bft)
09.02.2013 03:20 -4,1 C 95 % 1015,3 hPa 0,0 mm W-NW 297 0,0 km/h (0 Bft)
09.02.2013 03:25 -4,1 C 95 % 1015,3 hPa 0,0 mm W-NW 297 0,0 km/h (0 Bft)
09.02.2013 03:30 -4,0 C 95 % 1015,3 hPa 0,0 mm W-NW 297 0,0 km/h (0 Bft)
09.02.2013 03:35 -4,0 C 95 % 1015,3 hPa 0,2 mm W-NW 297 0,0 km/h (0 Bft)
09.02.2013 03:40 -3,9 C 95 % 1015,3 hPa 0,0 mm W-NW 297 0,0 km/h (0 Bft)
09.02.2013 03:45 -3,9 C 95 % 1015,3 hPa 0,2 mm W-NW 297 0,0 km/h (0 Bft)
09.02.2013 03:50 -3,9 C 95 % 1015,2 hPa 0,0 mm W-NW 297 0,0 km/h (0 Bft)
09.02.2013 03:55 -3,8 C 95 % 1015,2 hPa 0,2 mm W-NW 297 0,0 km/h (0 Bft)
09.02.2013 04:00 -3,8 C 95 % 1015,2 hPa 0,0 mm W-NW 297 0,0 km/h (0 Bft)
09.02.2013 04:05 -3,8 C 95 % 1015,2 hPa 0,2 mm W-NW 297 0,0 km/h (0 Bft)
09.02.2013 04:10 -3,8 C 95 % 1015,2 hPa 0,2 mm W-NW 297 0,0 km/h (0 Bft)
09.02.2013 04:15 -3,8 C 95 % 1015,2 hPa 0,0 mm W-NW 297 0,0 km/h (0 Bft)
09.02.2013 04:20 -3,7 C 95 % 1015,2 hPa 0,0 mm W-NW 297 0,0 km/h (0 Bft)
09.02.2013 04:25 -3,7 C 95 % 1015,2 hPa 0,0 mm W-NW 297 0,0 km/h (0 Bft)
09.02.2013 04:30 -3,7 C 95 % 1015,2 hPa 0,0 mm W-NW 297 0,0 km/h (0 Bft)
09.02.2013 04:35 -3,6 C 95 % 1015,2 hPa 0,0 mm W-NW 297 0,0 km/h (0 Bft)
09.02.2013 04:40 -3,6 C 95 % 1015,2 hPa 0,0 mm W-NW 297 0,0 km/h (0 Bft)
09.02.2013 04:45 -3,6 C 95 % 1015,2 hPa 0,0 mm W-NW 297 0,0 km/h (0 Bft)
09.02.2013 04:50 -3,6 C 95 % 1015,2 hPa 0,0 mm W-NW 297 0,0 km/h (0 Bft)
09.02.2013 04:55 -3,6 C 95 % 1015,2 hPa 0,0 mm W-NW 297 0,0 km/h (0 Bft)
09.02.2013 05:00 -3,6 C 95 % 1015,2 hPa 0,2 mm W-NW 297 0,0 km/h (0 Bft)
09.02.2013 05:05 -3,6 C 95 % 1015,2 hPa 0,0 mm W-NW 297 0,0 km/h (0 Bft)
09.02.2013 05:10 -3,6 C 95 % 1015,2 hPa 0,0 mm W-NW 297 0,0 km/h (0 Bft)
09.02.2013 05:15 -3,6 C 95 % 1015,1 hPa 0,0 mm W-NW 297 0,0 km/h (0 Bft)
09.02.2013 05:20 -3,6 C 95 % 1015,2 hPa 0,0 mm W-NW 297 0,0 km/h (0 Bft)
09.02.2013 05:25 -3,6 C 95 % 1015,1 hPa 0,0 mm W-NW 297 0,0 km/h (0 Bft)
09.02.2013 05:30 -3,6 C 95 % 1015,1 hPa 0,0 mm W-NW 297 0,0 km/h (0 Bft)
09.02.2013 05:35 -3,5 C 95 % 1015,1 hPa 0,0 mm W-NW 297 0,0 km/h (0 Bft)
09.02.2013 05:40 -3,6 C 95 % 1015,1 hPa 0,0 mm W-NW 297 0,0 km/h (0 Bft)
09.02.2013 05:45 -3,6 C 95 % 1015,1 hPa 0,0 mm W-NW 297 0,0 km/h (0 Bft)
09.02.2013 05:50 -3,6 C 95 % 1015,1 hPa 0,0 mm W-NW 297 0,0 km/h (0 Bft)
09.02.2013 05:55 -3,6 C 95 % 1015,1 hPa 0,0 mm W-NW 297 0,0 km/h (0 Bft)
09.02.2013 06:00 -3,6 C 95 % 1015,1 hPa 0,0 mm W-NW 297 0,0 km/h (0 Bft)
09.02.2013 06:05 -3,6 C 95 % 1015,2 hPa 0,0 mm W-NW 297 0,0 km/h (0 Bft)
09.02.2013 06:10 -3,7 C 95 % 1015,2 hPa 0,0 mm W-NW 297 0,0 km/h (0 Bft)
09.02.2013 06:15 -3,8 C 95 % 1015,2 hPa 0,0 mm W-NW 296 0,0 km/h (0 Bft)
09.02.2013 06:20 -3,9 C 95 % 1015,2 hPa 0,0 mm W-NW 297 0,0 km/h (0 Bft)
09.02.2013 06:25 -4,0 C 95 % 1015,2 hPa 0,0 mm W-NW 297 0,0 km/h (0 Bft)
09.02.2013 06:30 -4,0 C 95 % 1015,3 hPa 0,0 mm W-NW 297 0,0 km/h (0 Bft)
09.02.2013 06:35 -4,0 C 95 % 1015,4 hPa 0,0 mm W-NW 297 0,0 km/h (0 Bft)
09.02.2013 06:40 -4,0 C 95 % 1015,4 hPa 0,0 mm W-NW 297 0,0 km/h (0 Bft)
09.02.2013 06:45 -4,0 C 95 % 1015,4 hPa 0,0 mm W-NW 297 0,0 km/h (0 Bft)
09.02.2013 06:50 -4,0 C 95 % 1015,4 hPa 0,0 mm W-NW 296 0,0 km/h (0 Bft)
09.02.2013 06:55 -4,0 C 95 % 1015,4 hPa 0,0 mm W-NW 297 0,0 km/h (0 Bft)
09.02.2013 07:00 -3,9 C 95 % 1015,5 hPa 0,0 mm W-NW 297 0,0 km/h (0 Bft)
09.02.2013 07:05 -3,9 C 95 % 1015,5 hPa 0,0 mm W-NW 297 0,0 km/h (0 Bft)
09.02.2013 07:10 -3,9 C 95 % 1015,5 hPa 0,0 mm W-NW 297 0,0 km/h (0 Bft)
09.02.2013 07:15 -3,9 C 95 % 1015,5 hPa 0,0 mm W-NW 297 0,0 km/h (0 Bft)
09.02.2013 07:20 -3,9 C 95 % 1015,6 hPa 0,0 mm W-NW 297 0,0 km/h (0 Bft)
09.02.2013 07:25 -3,9 C 95 % 1015,6 hPa 0,0 mm W-NW 297 0,0 km/h (0 Bft)
09.02.2013 07:30 -3,8 C 95 % 1015,7 hPa 0,0 mm W-NW 297 0,0 km/h (0 Bft)
09.02.2013 07:35 -3,8 C 95 % 1015,7 hPa 0,0 mm W-NW 297 0,0 km/h (0 Bft)
09.02.2013 07:40 -3,8 C 95 % 1015,7 hPa 0,0 mm W-NW 297 0,0 km/h (0 Bft)
09.02.2013 07:45 -3,7 C 95 % 1015,7 hPa 0,2 mm W-NW 297 0,0 km/h (0 Bft)
09.02.2013 07:50 -3,7 C 95 % 1015,7 hPa 0,0 mm W-NW 297 0,0 km/h (0 Bft)
09.02.2013 07:55 -3,6 C 95 % 1015,8 hPa 0,0 mm W-NW 295 0,0 km/h (0 Bft)
09.02.2013 08:00 -3,6 C 95 % 1015,9 hPa 0,0 mm W-NW 289 3,2 km/h (1 Bft)
09.02.2013 08:05 -3,5 C 95 % 1016,0 hPa 0,0 mm W-NW 290 0,0 km/h (0 Bft)
09.02.2013 08:10 -3,4 C 95 % 1015,9 hPa 0,0 mm W-SW 257 1,6 km/h (1 Bft)
09.02.2013 08:15 -3,4 C 96 % 1015,9 hPa 0,0 mm W-SW 257 3,2 km/h (1 Bft)
09.02.2013 08:20 -3,3 C 96 % 1016,0 hPa 0,0 mm W-SW 257 3,2 km/h (1 Bft)
09.02.2013 08:25 -3,3 C 96 % 1016,1 hPa 0,0 mm W-SW 257 3,2 km/h (1 Bft)
09.02.2013 08:30 -3,2 C 95 % 1016,1 hPa 0,0 mm W-SW 257 0,0 km/h (0 Bft)
09.02.2013 08:35 -3,1 C 95 % 1016,1 hPa 0,0 mm W-SW 257 1,6 km/h (1 Bft)
09.02.2013 08:40 -3,1 C 96 % 1016,1 hPa 0,2 mm W-SW 257 0,0 km/h (0 Bft)
09.02.2013 08:45 -2,9 C 96 % 1016,2 hPa 0,0 mm W-SW 257 0,0 km/h (0 Bft)
09.02.2013 08:50 -2,9 C 96 % 1016,2 hPa 0,0 mm W-SW 257 0,0 km/h (0 Bft)
09.02.2013 08:55 -2,8 C 96 % 1016,3 hPa 0,2 mm W-SW 257 0,0 km/h (0 Bft)
09.02.2013 09:00 -2,8 C 95 % 1016,3 hPa 0,0 mm W-SW 257 0,0 km/h (0 Bft)
09.02.2013 09:05 -2,7 C 96 % 1016,4 hPa 0,0 mm W-SW 257 0,0 km/h (0 Bft)
09.02.2013 09:10 -2,7 C 96 % 1016,4 hPa 0,0 mm W-SW 257 0,0 km/h (0 Bft)
09.02.2013 09:15 -2,6 C 95 % 1016,4 hPa 0,0 mm W-SW 257 0,0 km/h (0 Bft)
09.02.2013 09:20 -2,6 C 95 % 1016,5 hPa 0,0 mm W-SW 257 0,0 km/h (0 Bft)
09.02.2013 09:25 -2,4 C 96 % 1016,5 hPa 0,0 mm W-NW 286 9,7 km/h (2 Bft)
09.02.2013 09:30 -2,4 C 96 % 1016,6 hPa 0,2 mm W-NW 287 11,3 km/h (2 Bft)
09.02.2013 09:35 -2,4 C 95 % 1016,7 hPa 0,0 mm W-SW 257 14,5 km/h (3 Bft)
09.02.2013 09:40 -2,4 C 95 % 1016,7 hPa 0,2 mm W 261 11,3 km/h (2 Bft)
09.02.2013 09:45 -2,3 C 95 % 1016,8 hPa 0,0 mm W 262 12,9 km/h (3 Bft)
09.02.2013 09:50 -2,3 C 94 % 1016,8 hPa 0,0 mm W 273 14,5 km/h (3 Bft)
09.02.2013 09:55 -2,2 C 94 % 1016,9 hPa 0,0 mm W-SW 251 9,7 km/h (2 Bft)
09.02.2013 10:00 -2,2 C 94 % 1017,1 hPa 0,0 mm W 262 16,1 km/h (3 Bft)
09.02.2013 10:05 -2,3 C 93 % 1017,1 hPa 0,0 mm W 273 14,5 km/h (3 Bft)
09.02.2013 10:10 -2,3 C 93 % 1017,1 hPa 0,0 mm W 270 14,5 km/h (3 Bft)
09.02.2013 10:15 -2,3 C 93 % 1017,1 hPa 0,0 mm W 277 11,3 km/h (2 Bft)
09.02.2013 10:20 -2,3 C 93 % 1017,3 hPa 0,0 mm W 276 11,3 km/h (2 Bft)
09.02.2013 10:25 -2,3 C 93 % 1017,3 hPa 0,0 mm W-SW 257 14,5 km/h (3 Bft)
09.02.2013 10:30 -2,2 C 93 % 1017,3 hPa 0,0 mm W 268 9,7 km/h (2 Bft)
09.02.2013 10:35 -2,2 C 92 % 1017,4 hPa 0,2 mm W 273 16,1 km/h (3 Bft)
09.02.2013 10:40 -2,3 C 92 % 1017,5 hPa 0,0 mm W 265 12,9 km/h (3 Bft)
09.02.2013 10:45 -2,3 C 92 % 1017,6 hPa 0,0 mm W 274 11,3 km/h (2 Bft)
09.02.2013 10:50 -2,3 C 92 % 1017,6 hPa 0,0 mm W 265 9,7 km/h (2 Bft)
09.02.2013 10:55 -2,3 C 92 % 1017,7 hPa 0,0 mm W-NW 282 9,7 km/h (2 Bft)
09.02.2013 11:00 -2,3 C 92 % 1017,7 hPa 0,0 mm W 259 11,3 km/h (2 Bft)
09.02.2013 11:05 -2,3 C 92 % 1017,8 hPa 0,2 mm W-SW 257 12,9 km/h (3 Bft)
09.02.2013 11:10 -2,2 C 92 % 1017,7 hPa 0,0 mm W-SW 252 16,1 km/h (3 Bft)
09.02.2013 11:15 -2,0 C 91 % 1017,8 hPa 0,0 mm W 262 17,7 km/h (3 Bft)
09.02.2013 11:20 -1,9 C 91 % 1017,8 hPa 0,0 mm W-SW 244 14,5 km/h (3 Bft)
09.02.2013 11:25 -1,7 C 91 % 1017,8 hPa 0,0 mm W-SW 240 11,3 km/h (2 Bft)
09.02.2013 11:30 -1,5 C 90 % 1017,9 hPa 0,0 mm W 263 11,3 km/h (2 Bft)
09.02.2013 11:35 -1,3 C 90 % 1017,9 hPa 0,0 mm W 263 16,1 km/h (3 Bft)
09.02.2013 11:40 -1,2 C 89 % 1017,9 hPa 0,0 mm W-SW 255 12,9 km/h (3 Bft)
09.02.2013 11:45 -1,3 C 88 % 1017,9 hPa 0,0 mm W 260 14,5 km/h (3 Bft)
09.02.2013 11:50 -1,3 C 88 % 1017,9 hPa 0,0 mm W 259 12,9 km/h (3 Bft)
09.02.2013 11:55 -1,4 C 87 % 1017,9 hPa 0,0 mm W 265 12,9 km/h (3 Bft)
09.02.2013 12:00 -1,4 C 87 % 1017,9 hPa 0,0 mm W-NW 302 11,3 km/h (2 Bft)
09.02.2013 12:05 -1,3 C 86 % 1017,9 hPa 0,0 mm W-SW 248 14,5 km/h (3 Bft)
09.02.2013 12:10 -1,3 C 86 % 1018,0 hPa 0,0 mm W 267 11,3 km/h (2 Bft)
09.02.2013 12:15 -1,3 C 85 % 1018,0 hPa 0,0 mm W-SW 257 12,9 km/h (3 Bft)
09.02.2013 12:20 -1,4 C 84 % 1018,0 hPa 0,0 mm W 263 16,1 km/h (3 Bft)
09.02.2013 12:25 -1,4 C 85 % 1018,1 hPa 0,0 mm W 280 11,3 km/h (2 Bft)
09.02.2013 12:30 -1,4 C 84 % 1018,0 hPa 0,0 mm W 266 17,7 km/h (3 Bft)
09.02.2013 12:35 -1,4 C 85 % 1018,2 hPa 0,0 mm W 271 14,5 km/h (3 Bft)
09.02.2013 12:40 -1,4 C 83 % 1018,2 hPa 0,0 mm W 264 16,1 km/h (3 Bft)
09.02.2013 12:45 -1,4 C 84 % 1018,1 hPa 0,0 mm W-SW 254 9,7 km/h (2 Bft)
09.02.2013 12:50 -1,3 C 84 % 1018,1 hPa 0,0 mm W 273 9,7 km/h (2 Bft)
09.02.2013 12:55 -1,2 C 83 % 1018,0 hPa 0,0 mm W 270 14,5 km/h (3 Bft)
09.02.2013 13:00 -1,1 C 82 % 1018,0 hPa 0,0 mm W-NW 283 12,9 km/h (3 Bft)
09.02.2013 13:05 -1,2 C 82 % 1018,0 hPa 0,0 mm W 267 19,3 km/h (3 Bft)
09.02.2013 13:10 -1,3 C 81 % 1018,0 hPa 0,0 mm W 267 19,3 km/h (3 Bft)
09.02.2013 13:15 -1,4 C 81 % 1018,1 hPa 0,0 mm W 267 14,5 km/h (3 Bft)
09.02.2013 13:20 -1,7 C 81 % 1018,1 hPa 0,0 mm NW 319 22,5 km/h (4 Bft)
09.02.2013 13:25 -1,7 C 82 % 1018,1 hPa 0,0 mm W 267 16,1 km/h (3 Bft)
09.02.2013 13:30 -1,6 C 82 % 1018,2 hPa 0,0 mm W 267 14,5 km/h (3 Bft)
09.02.2013 13:35 -1,6 C 81 % 1018,1 hPa 0,0 mm W-SW 244 14,5 km/h (3 Bft)
09.02.2013 13:40 -1,6 C 82 % 1018,1 hPa 0,0 mm W-SW 248 12,9 km/h (3 Bft)
09.02.2013 13:45 -1,6 C 82 % 1018,1 hPa 0,0 mm W 259 12,9 km/h (3 Bft)
09.02.2013 13:50 -1,5 C 81 % 1018,1 hPa 0,0 mm W-NW 284 8,0 km/h (2 Bft)
09.02.2013 13:55 -1,3 C 81 % 1018,1 hPa 0,0 mm W 274 12,9 km/h (3 Bft)
09.02.2013 14:00 -1,3 C 80 % 1018,0 hPa 0,0 mm W 270 9,7 km/h (2 Bft)
09.02.2013 14:05 -1,2 C 81 % 1018,0 hPa 0,0 mm W-SW 258 8,0 km/h (2 Bft)
09.02.2013 14:10 -1,2 C 79 % 1018,0 hPa 0,0 mm W-SW 240 11,3 km/h (2 Bft)
09.02.2013 14:15 -1,2 C 79 % 1018,0 hPa 0,0 mm W 264 8,0 km/h (2 Bft)
09.02.2013 14:20 -1,2 C 80 % 1017,9 hPa 0,0 mm W 263 8,0 km/h (2 Bft)
09.02.2013 14:25 -1,2 C 79 % 1018,0 hPa 0,0 mm W 269 8,0 km/h (2 Bft)
09.02.2013 14:30 -1,2 C 80 % 1018,0 hPa 0,0 mm W-SW 254 8,0 km/h (2 Bft)
09.02.2013 14:35 -1,2 C 80 % 1018,0 hPa 0,0 mm W 262 8,0 km/h (2 Bft)
09.02.2013 14:40 -1,2 C 79 % 1018,0 hPa 0,0 mm W 273 8,0 km/h (2 Bft)
09.02.2013 14:45 -1,2 C 78 % 1018,0 hPa 0,0 mm W 260 8,0 km/h (2 Bft)
09.02.2013 14:50 -1,2 C 78 % 1018,1 hPa 0,0 mm W-SW 258 6,4 km/h (2 Bft)
09.02.2013 14:55 -1,1 C 79 % 1018,0 hPa 0,0 mm W-SW 257 8,0 km/h (2 Bft)
09.02.2013 15:00 -1,1 C 80 % 1018,1 hPa 0,0 mm W 265 8,0 km/h (2 Bft)
09.02.2013 15:05 -1,2 C 79 % 1018,1 hPa 0,0 mm W-SW 257 8,0 km/h (2 Bft)
09.02.2013 15:10 -1,3 C 79 % 1018,1 hPa 0,0 mm W-SW 244 14,5 km/h (3 Bft)
09.02.2013 15:15 -1,3 C 80 % 1018,1 hPa 0,0 mm W 271 8,0 km/h (2 Bft)
09.02.2013 15:20 -1,4 C 81 % 1018,1 hPa 0,0 mm W 260 6,4 km/h (2 Bft)
09.02.2013 15:25 -1,5 C 81 % 1018,2 hPa 0,0 mm W 260 9,7 km/h (2 Bft)
09.02.2013 15:30 -1,7 C 82 % 1018,2 hPa 0,0 mm W 260 8,0 km/h (2 Bft)
09.02.2013 15:35 -1,9 C 83 % 1018,2 hPa 0,0 mm W 262 8,0 km/h (2 Bft)
09.02.2013 15:40 -2,1 C 84 % 1018,2 hPa 0,0 mm W 271 11,3 km/h (2 Bft)
09.02.2013 15:45 -2,3 C 86 % 1018,3 hPa 0,0 mm W-NW 289 11,3 km/h (2 Bft)
09.02.2013 15:50 -2,3 C 87 % 1018,3 hPa 0,2 mm W 269 6,4 km/h (2 Bft)
09.02.2013 15:55 -2,3 C 87 % 1018,3 hPa 0,0 mm W 268 3,2 km/h (1 Bft)
09.02.2013 16:00 -2,3 C 87 % 1018,3 hPa 0,0 mm W 269 4,8 km/h (1 Bft)
09.02.2013 16:05 -2,3 C 87 % 1018,4 hPa 0,0 mm W 263 3,2 km/h (1 Bft)
09.02.2013 16:10 -2,3 C 87 % 1018,3 hPa 0,0 mm W 263 0,0 km/h (0 Bft)
09.02.2013 16:15 -2,4 C 87 % 1018,4 hPa 0,0 mm W-SW 254 0,0 km/h (0 Bft)
09.02.2013 16:20 -2,5 C 87 % 1018,4 hPa 0,0 mm W-SW 255 0,0 km/h (0 Bft)
09.02.2013 16:25 -2,6 C 87 % 1018,5 hPa 0,0 mm W-SW 253 8,0 km/h (2 Bft)
09.02.2013 16:30 -2,6 C 88 % 1018,4 hPa 0,0 mm W 262 8,0 km/h (2 Bft)
09.02.2013 16:35 -2,7 C 88 % 1018,5 hPa 0,0 mm W 265 8,0 km/h (2 Bft)
09.02.2013 16:40 -2,8 C 87 % 1018,5 hPa 0,0 mm W 277 9,7 km/h (2 Bft)
09.02.2013 16:45 -2,8 C 88 % 1018,4 hPa 0,0 mm W 276 4,8 km/h (1 Bft)
09.02.2013 16:50 -2,9 C 88 % 1018,4 hPa 0,0 mm W 267 4,8 km/h (1 Bft)
09.02.2013 16:55 -2,9 C 87 % 1018,4 hPa 0,0 mm W 271 4,8 km/h (1 Bft)
09.02.2013 17:00 -3,1 C 88 % 1018,5 hPa 0,0 mm W 280 4,8 km/h (1 Bft)
09.02.2013 17:05 -3,1 C 87 % 1018,5 hPa 0,0 mm W 274 3,2 km/h (1 Bft)
09.02.2013 17:10 -3,2 C 87 % 1018,6 hPa 0,0 mm W 261 4,8 km/h (1 Bft)
09.02.2013 17:15 -3,3 C 87 % 1018,6 hPa 0,0 mm W 279 4,8 km/h (1 Bft)
09.02.2013 17:20 -3,4 C 87 % 1018,8 hPa 0,0 mm W 269 3,2 km/h (1 Bft)
09.02.2013 17:25 -3,4 C 88 % 1018,8 hPa 0,0 mm W 269 1,6 km/h (1 Bft)
09.02.2013 17:30 -3,4 C 88 % 1018,9 hPa 0,0 mm W-NW 300 6,4 km/h (2 Bft)
09.02.2013 17:35 -3,4 C 89 % 1019,0 hPa 0,0 mm W-SW 258 9,7 km/h (2 Bft)
09.02.2013 17:40 -3,4 C 89 % 1019,0 hPa 0,0 mm W-SW 238 12,9 km/h (3 Bft)
09.02.2013 17:45 -3,5 C 90 % 1019,1 hPa 0,2 mm W-SW 256 8,0 km/h (2 Bft)
09.02.2013 17:50 -3,6 C 89 % 1019,1 hPa 0,0 mm W 261 6,4 km/h (2 Bft)
09.02.2013 17:55 -3,7 C 89 % 1019,1 hPa 0,0 mm W 261 3,2 km/h (1 Bft)
09.02.2013 18:00 -3,7 C 89 % 1019,1 hPa 0,0 mm W 261 1,6 km/h (1 Bft)
09.02.2013 18:05 -3,8 C 88 % 1019,1 hPa 0,0 mm W 261 0,0 km/h (0 Bft)
09.02.2013 18:10 -3,8 C 89 % 1019,2 hPa 0,0 mm W 261 1,6 km/h (1 Bft)
09.02.2013 18:15 -3,9 C 88 % 1019,2 hPa 0,0 mm W 261 1,6 km/h (1 Bft)
09.02.2013 18:20 -4,0 C 89 % 1019,2 hPa 0,0 mm W 261 3,2 km/h (1 Bft)
09.02.2013 18:25 -4,2 C 89 % 1019,2 hPa 0,0 mm W 261 1,6 km/h (1 Bft)
09.02.2013 18:30 -4,2 C 89 % 1019,2 hPa 0,0 mm W 261 3,2 km/h (1 Bft)
09.02.2013 18:35 -4,3 C 89 % 1019,2 hPa 0,0 mm W 261 1,6 km/h (1 Bft)
09.02.2013 18:40 -4,4 C 89 % 1019,2 hPa 0,0 mm W 261 0,0 km/h (0 Bft)
09.02.2013 18:45 -4,4 C 90 % 1019,2 hPa 0,0 mm W 261 0,0 km/h (0 Bft)
09.02.2013 18:50 -4,5 C 90 % 1019,3 hPa 0,0 mm W 261 0,0 km/h (0 Bft)
09.02.2013 18:55 -4,6 C 90 % 1019,2 hPa 0,0 mm W 261 0,0 km/h (0 Bft)
09.02.2013 19:00 -4,6 C 90 % 1019,3 hPa 0,0 mm W 261 0,0 km/h (0 Bft)
09.02.2013 19:05 -4,7 C 90 % 1019,3 hPa 0,0 mm W 261 0,0 km/h (0 Bft)
09.02.2013 19:10 -4,7 C 90 % 1019,3 hPa 0,0 mm W 261 0,0 km/h (0 Bft)
09.02.2013 19:15 -4,7 C 91 % 1019,2 hPa 0,0 mm W 261 0,0 km/h (0 Bft)
09.02.2013 19:20 -4,7 C 91 % 1019,2 hPa 0,0 mm W 261 0,0 km/h (0 Bft)
09.02.2013 19:25 -4,7 C 91 % 1019,2 hPa 0,0 mm W 261 0,0 km/h (0 Bft)
09.02.2013 19:30 -4,7 C 91 % 1019,2 hPa 0,0 mm W 261 0,0 km/h (0 Bft)
09.02.2013 19:35 -4,8 C 91 % 1019,2 hPa 0,0 mm W 261 0,0 km/h (0 Bft)
09.02.2013 19:40 -4,8 C 91 % 1019,2 hPa 0,0 mm W 261 0,0 km/h (0 Bft)
09.02.2013 19:45 -4,8 C 91 % 1019,2 hPa 0,0 mm W 261 0,0 km/h (0 Bft)
09.02.2013 19:50 -4,8 C 91 % 1019,2 hPa 0,0 mm W 261 0,0 km/h (0 Bft)
09.02.2013 19:55 -4,9 C 91 % 1019,2 hPa 0,0 mm W 261 0,0 km/h (0 Bft)
09.02.2013 20:00 -4,9 C 91 % 1019,2 hPa 0,0 mm W 261 0,0 km/h (0 Bft)
09.02.2013 20:05 -4,9 C 91 % 1019,2 hPa 0,0 mm W 261 0,0 km/h (0 Bft)
09.02.2013 20:10 -5,0 C 91 % 1019,1 hPa 0,0 mm W 261 0,0 km/h (0 Bft)
09.02.2013 20:15 -5,1 C 91 % 1019,1 hPa 0,0 mm W 261 0,0 km/h (0 Bft)
09.02.2013 20:20 -5,0 C 91 % 1019,1 hPa 0,0 mm W 261 0,0 km/h (0 Bft)
09.02.2013 20:25 -5,0 C 91 % 1019,1 hPa 0,0 mm W 261 0,0 km/h (0 Bft)
09.02.2013 20:30 -5,0 C 91 % 1019,1 hPa 0,0 mm W 261 1,6 km/h (1 Bft)
09.02.2013 20:35 -5,0 C 92 % 1019,1 hPa 0,0 mm W 261 1,6 km/h (1 Bft)
09.02.2013 20:40 -5,0 C 92 % 1019,1 hPa 0,0 mm W 261 1,6 km/h (1 Bft)
09.02.2013 20:45 -4,9 C 92 % 1019,1 hPa 0,0 mm W 261 1,6 km/h (1 Bft)
09.02.2013 20:50 -4,9 C 92 % 1019,2 hPa 0,0 mm W 261 0,0 km/h (0 Bft)
09.02.2013 20:55 -4,9 C 91 % 1019,2 hPa 0,0 mm W 261 0,0 km/h (0 Bft)
09.02.2013 21:00 -4,9 C 91 % 1019,1 hPa 0,0 mm W 261 0,0 km/h (0 Bft)
09.02.2013 21:05 -4,9 C 91 % 1019,2 hPa 0,0 mm W 261 0,0 km/h (0 Bft)
09.02.2013 21:10 -4,9 C 91 % 1019,1 hPa 0,0 mm W 261 0,0 km/h (0 Bft)
09.02.2013 21:15 -4,9 C 91 % 1019,1 hPa 0,0 mm W 261 0,0 km/h (0 Bft)
09.02.2013 21:20 -5,0 C 91 % 1019,1 hPa 0,0 mm W 261 0,0 km/h (0 Bft)
09.02.2013 21:25 -5,0 C 91 % 1019,1 hPa 0,0 mm W 261 0,0 km/h (0 Bft)
09.02.2013 21:30 -5,0 C 91 % 1019,0 hPa 0,0 mm W 261 0,0 km/h (0 Bft)
09.02.2013 21:35 -5,0 C 91 % 1019,0 hPa 0,0 mm W 261 0,0 km/h (0 Bft)
09.02.2013 21:40 -5,0 C 91 % 1019,1 hPa 0,0 mm W 261 0,0 km/h (0 Bft)
09.02.2013 21:45 -4,9 C 91 % 1019,0 hPa 0,0 mm W 261 0,0 km/h (0 Bft)
09.02.2013 21:50 -4,9 C 92 % 1019,0 hPa 0,0 mm W 261 0,0 km/h (0 Bft)
09.02.2013 21:55 -4,9 C 92 % 1018,9 hPa 0,0 mm W 261 0,0 km/h (0 Bft)
09.02.2013 22:00 -4,9 C 92 % 1019,0 hPa 0,0 mm W 261 0,0 km/h (0 Bft)
09.02.2013 22:05 -4,9 C 92 % 1018,9 hPa 0,0 mm W 261 0,0 km/h (0 Bft)
09.02.2013 22:10 -4,8 C 92 % 1019,0 hPa 0,0 mm W-SW 246 3,2 km/h (1 Bft)
09.02.2013 22:15 -4,8 C 92 % 1018,9 hPa 0,0 mm W-SW 246 1,6 km/h (1 Bft)
09.02.2013 22:20 -4,7 C 92 % 1019,0 hPa 0,0 mm W-SW 246 1,6 km/h (1 Bft)
09.02.2013 22:25 -4,7 C 92 % 1018,9 hPa 0,0 mm W 269 4,8 km/h (1 Bft)
09.02.2013 22:30 -4,6 C 92 % 1019,0 hPa 0,0 mm W 267 3,2 km/h (1 Bft)
09.02.2013 22:35 -4,6 C 92 % 1019,0 hPa 0,0 mm W 263 4,8 km/h (1 Bft)
09.02.2013 22:40 -4,6 C 92 % 1018,9 hPa 0,0 mm W-SW 257 6,4 km/h (2 Bft)
09.02.2013 22:45 -4,6 C 92 % 1018,9 hPa 0,0 mm W-SW 254 4,8 km/h (1 Bft)
09.02.2013 22:50 -4,5 C 92 % 1018,8 hPa 0,0 mm W-SW 252 6,4 km/h (2 Bft)
09.02.2013 22:55 -4,5 C 92 % 1018,8 hPa 0,0 mm W-SW 258 3,2 km/h (1 Bft)
09.02.2013 23:00 -4,5 C 92 % 1018,8 hPa 0,0 mm W 264 4,8 km/h (1 Bft)
09.02.2013 23:05 -4,5 C 92 % 1018,8 hPa 0,0 mm W 259 3,2 km/h (1 Bft)
09.02.2013 23:10 -4,5 C 92 % 1018,8 hPa 0,0 mm W-SW 254 3,2 km/h (1 Bft)
09.02.2013 23:15 -4,5 C 93 % 1018,8 hPa 0,0 mm W 259 6,4 km/h (2 Bft)
09.02.2013 23:20 -4,5 C 93 % 1018,8 hPa 0,0 mm W 262 6,4 km/h (2 Bft)
09.02.2013 23:25 -4,5 C 93 % 1018,9 hPa 0,0 mm W 265 4,8 km/h (1 Bft)
09.02.2013 23:30 -4,6 C 93 % 1018,9 hPa 0,0 mm W 261 8,0 km/h (2 Bft)
09.02.2013 23:35 -4,6 C 93 % 1018,9 hPa 0,0 mm W 261 4,8 km/h (1 Bft)
09.02.2013 23:40 -4,6 C 93 % 1018,9 hPa 0,0 mm W 261 3,2 km/h (1 Bft)
09.02.2013 23:45 -4,6 C 93 % 1018,9 hPa 0,0 mm W 263 3,2 km/h (1 Bft)
09.02.2013 23:50 -4,6 C 93 % 1018,9 hPa 0,0 mm W 271 4,8 km/h (1 Bft)
09.02.2013 23:55 -4,6 C 93 % 1018,8 hPa 0,0 mm W-SW 257 4,8 km/h (1 Bft)
_ Min-Zeit 00:05 14:45 01:25 - - - 00:00
Minimum _ -6,2 C 78 % 1015,1 hPa - - - 0,0 km/h (0 Bft)
_ Max-Zeit 13:00 08:15 18:50 02:50 - - 13:20
Maximum _ -1,1 C 96 % 1019,3 hPa 0,2 mm - - 22,5 km/h
W (4 Bft)
Durchschnitt _ -3,5 C 91 % 1017,3 hPa #3,2 mm W - 4,2 km/h (1 Bft)